Starlink 11650

operational
NORAD ID: 63312 Int'l Des: 2025-057 Owner: SPXS Country: US Constellation: starlink
LEOCIRCULAR

About Starlink 11650

Description loading...

Live Position

Loading 3D Globe...

Upcoming Passes

Altitude History

Altitude vs Time

uPlot chart will show altitude changes over time

Two-Line Element Set

1 63312U 25057F 25304.98692926 .00266176 00000-0 20010-2 0 9992
2 63312 42.9991 320.5217 0002239 297.2200 62.8439 15.70972110 36968
Epoch: Oct 31, 2025 • Age: 29 hours

Current Status

Altitude 356.4 km
Velocity 7.70 km/s
Sub-Earth Point 35.51°N, 112.77°W
Launch Date Mar 18, 2025
Age 0.6 years
Type internet

Technical Details

Classification Payload
Mass 960.00 kg
Dry Mass 910.00 kg
Total Mass 960.00 kg
Length 0.30 m
Diameter 4.10 m
Span 29.00 m
Shape Box + pan
Manufacturer SPXS
Bus Type Starlink V2MD
Phase Status In Orbit
Owner/State SPXS/US

Large Constellations

Loading constellations...